Погода в Ыспарте

Турция     37°45′39″N   30°33′08″E
темп.,
°C
ветер,
м/с
пор.,
м/с
влажн.,
%
обл.,
%
осадки,
мм/ч
давл.,
гПа
погр.,
м
17 апреля, сб
сб1700:00+10ююв3251100 0.0 101825
03:00+10юв1153100 0.0 101710
06:00+11ююв3346100 0.1 101630
09:00+13з2345100 0.1 1018153
12:00+17юв3543100 0.4 1017556
15:00+19ююв583579 0.4 1015805
18:00+17ююв573985 0.0 1016457
21:00+13ююв5644100 0.0 1019103
18 апреля, вс
вс1800:00+12ююв4444100 0.0 101854
03:00+13ююв3244100 0.0 101831
06:00+12ююв3344100 0.0 101834
09:00+16ю1238100 0.0 101998
12:00+21ююз2830100 0.0 10171809
15:00+22ю472961 0.0 10161288
18:00+21ююв473118 0.0 10161337
21:00+14ююв4340100 0.0 101833
19 апреля, пн
пн1900:00+14ююв2238100 0.0 101814
03:00+13юв2238100 0.0 101612
06:00+13юв3338100 0.0 101431
09:00+16ююв2536100 0.0 1015225
12:00+22ю61527100 0.0 10122370
15:00+21ююв71230100 0.0 10101119
18:00+19юв593752 0.0 1008478
21:00+15ююв5942100 0.0 1008227
20 апреля, вт
вт2000:00+13ю2354100 0.0 100829
03:00+11зюз2271100 0.0 100830
06:00+8зюз45795 0.1 101085
09:00+11зюз34320 0.1 1011891
12:00+14зюз57230 0.0 10121632
15:00+16з68180 0.0 10112242
18:00+15зсз67250 0.0 10111893
21:00+10сз11430 0.0 101411
21 апреля, ср
ср2100:00+8зсз11580 0.0 101511
03:00+6сз1167100 0.0 101512
06:00+5сз22720 0.0 101613
09:00+9сз22560 0.0 1017537
12:00+13з44340 0.0 10171496
15:00+15зсз3527100 0.0 10162077
18:00+15зсз46255 0.0 10152090
21:00+10ссз11415 0.0 101811